Location: Miles
(41.4492°N, 81.6087°W)
Time: 04:11:22
(UTC+00:00)

S-56A Canister/Altair - Pass Details

Date: 21 September 2024
Orbit: 636 x 2487 km, 38.9° (Epoch: 11 October)

Event Time Altitude Azimuth Distance (km) Brightness Sun altitude
Rises 02:38:09 0° 278° (W) 3,519 11.7 -34.4°
Reaches altitude 10° 02:40:26 10° 272° (W) 2,753 10.9 -34.7°
Enters shadow 02:45:08 43° 235° (SW) 1,642 9.1 -35.4°
